www.pogodaiklimat.ru

Погода и климат >> Архив погоды >> Германия >> Вестермаркельсдорф


ПОГОДА в Вестермаркельсдорфе

  • Прогноз погоды в Вестермаркельсдорфе
  • Монитор погоды в Вестермаркельсдорфе

АРХИВ ПОГОДЫ в Вестермаркельсдорфе

Время (UTC), дата Ветер
(напр.,м/с)
 
Видим.   Явления Облачность Т
(С)
Тd
(С)
f
(%)
Тe
(С)
Тes
(С)
Комфортность P
(гПа)
Po
(гПа)
Тmin
(С)
Tmax
(С)
R
(мм)
R24
(мм)
S
(см)
22 13.06 ЮВ 4 26 км 10/0 2000 м
[]
+13.5 +12.4 93 +12 +12 1014.7 1013.7
23 13.06 ЮВ 5 30 км 10/0
[]
+15.0 +12.9 87 +14 +14 1015.1 1014.1
00 14.06 ЮВ 4 35 км {ливн. осадки, дождь} 10/0
[]
+14.3 +12.3 88 +13 +13 1015.5 1014.5
01 14.06 Ю 4-5
{6}
30 км 4/0
[]
+14.3 +13.1 92 +13 +13 1015.6 1014.6
02 14.06 Ю 4-6
{6}
20 км 4/0
[]
+14.6 +13.5 93 +13 +13 1015.8 1014.8
03 14.06 Ю 3 16 км 8/0
[]
+14.0 +13.1 94 +13 +13 1016.3 1015.3
04 14.06 Ю 4-5
{5}
14 км 10/0
[]
+14.7 +13.3 91 +13 +14 1016.5 1015.5
05 14.06 Ю 4 19 км 10/0
[]
+15.9 +14.2 90 +15 +16 1016.7 1015.7
06 14.06 Ю 4 14 км 5/0
[]
+17.1 +14.2 83 +17 +19 1017.0 1016.0 +13.4 +19.4 4
07 14.06 Ю 4-6
{6}
7000 м дым ясно +18.6 +14.5 77 +19 +24 1017.7 1016.7
08 14.06 Ю 3-6
{6}
9000 м 1/0
[]
+20.5 +14.1 67 +23 +31 комфорт 1017.9 1016.9
09 14.06 Ю 5 7000 м дым ясно +21.9 +12.2 54 +24 +31 комфорт 1018.1 1017.1
10 14.06 ЮВ 4-7
{7}
10 км 1/0
[]
+22.3 +14.2 60 +26 +35 жарко 1018.1 1017.1
11 14.06 ЮВ 6-9
{9}
7000 м дым 3/0
[]
+22.7 +13.5 56 +26 +31 жарко 1017.6 1016.6
12 14.06 В 5 16 км 6/0
[]
+23.0 +16.0 65 +27 +33 душно 1017.4 1016.4
13 14.06 ЮВ 5 17 км 10/0
[]
+22.7 +16.0 66 +27 +31 душно 1017.1 1016.1
14 14.06 В 5 18 км 10/0
[]
+22.2 +15.6 66 +26 +29 душно 1016.4 1015.4
15 14.06 В 4 29 км 9/0
[]
+20.0 +15.3 74 +22 +26 комфорт 1016.2 1015.2
16 14.06 ЮВ 4 24 км в посл. час дождь 10/0
[]
+21.9 +15.2 66 +25 +27 комфорт 1015.5 1014.5
17 14.06 ЮЗ 8 13 км слаб. дождь 9/0 2000 м
[]
+20.3 +14.6 70 +22 +23 комфорт 1017.0 1016.0
18 14.06 С 3 25 км в посл. час дождь {морось} 10/0
[]
+18.3 +15.3 83 +19 +19 1016.3 1015.3 +17.0 +23.6 2
19 14.06 С 2-3
{5}
27 км в посл. час дождь 9/0
[]
+18.7 +15.1 80 +20 +20 1015.7 1014.7
20 14.06 В 5 22 км 8/0
[]
+18.6 +15.8 84 +19 +19 1015.7 1014.7
21 14.06 В 5 29 км {дождь} 6/0
[]
+18.5 +15.4 82 +19 +19 1016.0 1015.0 0.0
22 14.06 В 6 29 км 10/0
[]
+18.2 +15.0 82 +18 +18 1015.6 1014.6
23 14.06 В 5 28 км 9/0
[]
+17.6 +14.6 83 +17 +17 1015.2 1014.2
00 15.06 В 5 26 км {дождь} 10/0
[]
+17.0 +14.6 86 +16 +16 1014.9 1013.9
01 15.06 В 5 20 км 10/0
[]
+16.4 +14.6 89 +15 +15 1014.5 1013.5
02 15.06 В 5 18 км 10/0
[]
+17.0 +14.8 87 +16 +16 1013.7 1012.7
03 15.06 В 5 17 км 10/0
[]
+17.8 +15.2 85 +17 +17 1013.0 1012.0
04 15.06 В 5 19 км в посл. час дождь 10/0
[]
+17.6 +15.2 86 +17 +17 1012.6 1011.6
05 15.06 В 5 20 км 10/0
[]
+18.0 +15.2 84 +18 +18 1011.8 1010.8
06 15.06 В 4 11 км слаб. дождь 10/0
[]
+18.5 +15.5 83 +19 +20 1011.9 1010.9 +16.3 +19.2 0.0
07 15.06 ЮВ 2-4
{7}
6000 м слаб. дождь 9/0
[]
+17.0 +15.7 92 +17 +21 1012.5 1011.5
08 15.06 В 4-5
{5}
4500 м слаб. дождь 10/0
[]
+16.9 +16.0 94 +16 +20 1012.1 1011.1
09 15.06 ЮВ 4 3400 м слаб. дождь 10/10 1500 м
[]
+16.7 +16.1 96 +16 +16 1012.7 1011.7 7
10 15.06 В 5-9
{11}
5000 м слаб. дождь 10/0
[]
+17.3 +15.8 91 +17 +21 1010.9 1009.9
11 15.06 В 9 14 км слаб. дождь 10/0 2000 м
[]
+16.8 +14.0 84 +15 +16 1010.2 1009.2
12 15.06 В 10 9000 м в посл. час дождь {морось} 9/9 1020 м
[]
+18.2 +13.2 73 +17 +17 1010.1 1009.1 3
13 15.06 В 8 15 км 9/9 960 м
[]
+18.4 +13.7 74 +18 +18 1010.0 1009.0
14 15.06 В 9-13
{14}
15 км 10/10 960 м
[]
+18.3 +13.2 72 +18 +18 1009.5 1008.5
15 15.06 В 10 24 км 10/10 960 м
[]
+17.8 +13.0 73 +17 +17 1009.9 1008.9
16 15.06 ЮВ 7-10
{13}
30 км 10/10 930 м
[]
+18.0 +13.3 74 +17 +17 1010.9 1009.9
17 15.06 ЮВ 5 6000 м слаб. дождь {морось} 9/9 700 м
[]
+16.3 +13.0 81 +15 +16 1012.0 1011.0
18 15.06 Ю 2 18 км в посл. час дождь {морось} 10/10 600 м
[]
+16.7 +14.8 89 +17 +17 1011.3 1010.3 +15.8 +19.2 0.5
19 15.06 ЮЗ 3-5
{5}
11 км 1/0
[]
+17.3 +15.2 87 +17 +17 1011.3 1010.3
20 15.06 З 5 19 км 9/9 700 м
[]
+17.2 +15.6 90 +17 +17 1012.2 1011.2
21 15.06 З 8 27 км 10/10 600 м
[]
+17.1 +15.4 90 +16 +16 1013.4 1012.4
22 15.06 З 8 10 км 10/10 300 м
[]
+16.5 +14.9 90 +15 +15 1014.2 1013.2
23 15.06 З 13 16 км в посл. час морось {дымка} 10/10 270 м
[]
+15.7 +14.1 90 +13 +13 1014.5 1013.5
00 16.06 З 10 30 км {морось, дымка} 10/10 300 м
[]
+15.7 +13.8 88 +14 +14 1014.8 1013.8 0.0
01 16.06 З 10-13
{14}
28 км 10/10 660 м
[]
+15.5 +13.5 88 +13 +13 1015.2 1014.2
02 16.06 З 10-12
{13}
27 км 8/8 800 м
[]
+15.4 +13.1 86 +13 +13 1015.6 1014.6
03 16.06 З 9 23 км 5/5 420 м
[]
+15.2 +12.9 86 +13 +13 1015.9 1014.9
04 16.06 З 10-12
{13}
9000 м 8/8 400 м
[]
+15.1 +12.8 86 +13 +13 1016.6 1015.6
05 16.06 З 8-10
{12}
8000 м 3/3 330 м
[]
+15.3 +13.0 86 +13 +13 1017.2 1016.2
06 16.06 З 6 4900 м дымка 8/0
[]
+15.4 +12.3 82 +14 +15 1017.8 1016.8 +15.0 +17.7 0.0
07 16.06 З 7 6000 м дым 9/0
[]
+15.7 +12.2 80 +14 +15 1018.3 1017.3
08 16.06 З 7 4900 м дым 10/0
[]
+16.3 +12.6 79 +15 +16 1018.4 1017.4
09 16.06 З 7 4600 м дым 10/0
[]
+16.7 +12.1 74 +15 +17 1018.8 1017.8
10 16.06 З 5-7
{8}
5000 м дым ясно +17.5 +13.0 75 +17 +25 1019.4 1018.4
11 16.06 З 4-4
{6}
11 км 10/0
[]
+18.0 +13.1 73 +18 +23 1019.7 1018.7
12 16.06 З 4 9000 м 10/0
[]
+18.8 +13.0 69 +20 +25 1020.1 1019.1
13 16.06 З 3-4
{4}
21 км 10/0
[]
+18.8 +12.8 68 +20 +26 1020.4 1019.4
14 16.06 З 2-3
{4}
35 км 10/0
[]
+18.6 +11.6 64 +20 +26 1020.6 1019.6
15 16.06 СЗ 1 27 км 10/0
[]
+19.6 +11.6 60 +22 +27 комфорт 1020.4 1019.4
16 16.06 СЗ 1 28 км 6/0
[]
+20.3 +10.3 53 +23 +27 комфорт 1020.2 1019.2
17 16.06 В 3-4
{4}
13 км ясно +19.5 +11.7 61 +21 +23 комфорт 1020.1 1019.1
18 16.06 В 3 40 км ясно +19.3 +12.9 66 +21 +22 комфорт 1020.2 1019.2 +15.5 +20.7
19 16.06 В 3 35 км 6/6 1500 м
[]
+17.1 +13.0 77 +17 +17 1020.2 1019.2
20 16.06 СЗ 3 30 км 9/9 1500 м
[]
+17.4 +13.7 79 +17 +17 1020.5 1019.5
21 16.06 ЮВ 2 20 км 9/9 1470 м
[]
+15.9 +13.3 85 +16 +16 1020.7 1019.7
22 16.06 Ю 2 19 км 10/10 1380 м
[]
+15.7 +13.4 86 +16 +16 1021.0 1020.0
23 16.06 ЮЗ 2 26 км 10/0 2000 м
[]
+16.4 +13.6 84 +17 +17 1020.8 1019.8
00 17.06 З 6 5000 м дымка 4/0 2000 м
[]
+16.4 +15.5 94 +15 +15 1020.8 1019.8
01 17.06 З 5-6
{7}
6000 м дымка ясно +15.9 +15.0 94 +15 +15 1021.0 1020.0
02 17.06 З 4-5
{6}
6000 м дымка ясно +15.9 +14.6 92 +15 +15 1021.3 1020.3
03 17.06 З 3-4
{7}
4200 м дымка ясно +15.7 +14.7 94 +15 +15 1021.3 1020.3
04 17.06 З 3-3
{4}
4200 м дымка ясно +15.9 +14.8 93 +15 +16 1021.6 1020.6
05 17.06 ЮЗ 2-3
{3}
8000 м ясно +17.0 +14.7 86 +17 +19 1021.6 1020.6
06 17.06 ЮЗ 2 19 км ясно +18.2 +12.7 70 +19 +23 1021.9 1020.9 +15.4 +19.2
07 17.06 ЮЗ 2-3
{3}
18 км ясно +19.7 +12.2 62 +22 +29 комфорт 1022.1 1021.1
08 17.06 З 3-5
{5}
30 км ясно +20.2 +11.1 56 +22 +31 комфорт 1022.4 1021.4
09 17.06 ЮЗ 4 7000 м дым ясно +21.2 +11.1 52 +23 +32 комфорт 1022.4 1021.4
10 17.06 ЮЗ 4-5
{6}
10 км ясно +21.0 +11.1 53 +23 +34 комфорт 1022.3 1021.3
11 17.06 З 4-5
{6}
7000 м дым ясно +21.8 +12.4 55 +24 +35 комфорт 1022.2 1021.2
12 17.06 СЗ 2-3
{7}
15 км ясно +21.4 +11.8 54 +23 +39 комфорт 1022.1 1021.1
13 17.06 СВ 3-5
{5}
16 км ясно +21.3 +13.1 59 +24 +36 комфорт 1022.1 1021.1
14 17.06 В 4-5
{5}
11 км ясно +21.5 +12.9 58 +24 +32 комфорт 1021.9 1020.9
15 17.06 В 5-6
{7}
7000 м дым ясно +21.1 +13.9 63 +24 +28 комфорт 1021.5 1020.5
16 17.06 В 5-6
{7}
8000 м {дымка} ясно +21.7 +13.6 60 +24 +27 комфорт 1021.0 1020.0
17 17.06 ЮВ 4-5
{6}
10 км ясно +21.0 +13.2 61 +24 +26 комфорт 1020.8 1019.8
18 17.06 В 4 16 км ясно +19.6 +12.7 64 +21 +22 комфорт 1020.5 1019.5 +18.2 +22.3
19 17.06 В 4-5
{6}
18 км ясно +18.1 +12.7 71 +18 +18 1020.2 1019.2
20 17.06 В 3-3
{5}
16 км ясно +15.8 +12.7 82 +15 +15 1020.1 1019.1
21 17.06 ЮВ 3-4
{6}
10 км ясно +14.9 +12.4 85 +14 +14 1020.0 1019.0
22 17.06 ЮВ 4-5
{5}
14 км ясно +14.5 +11.9 84 +13 +13 1019.9 1018.9
23 17.06 ЮВ 4-6
{6}
30 км ясно +15.5 +13.0 85 +15 +15 1019.8 1018.8
00 18.06 ЮВ 5 35 км ясно +15.5 +12.6 83 +14 +14 1019.5 1018.5
01 18.06 ЮВ 4-6
{6}
35 км 6/0
[]
+15.5 +12.8 84 +15 +15 1019.3 1018.3
02 18.06 ЮВ 4 35 км 9/0 2000 м
[]
+16.9 +12.9 77 +16 +16 1018.9 1017.9
03 18.06 ЮВ 4-8
{9}
30 км ясно +16.8 +12.5 76 +16 +16 1018.4 1017.4
04 18.06 ЮВ 4-7
{7}
25 км 3/0 2000 м
[]
+16.5 +12.6 78 +16 +16 1018.2 1017.2
05 18.06 ЮВ 5-9
{9}
12 км 8/0
[]
+18.1 +13.2 73 +18 +18 1017.9 1016.9
06 18.06 ЮВ 5 8000 м 9/0
[]
+19.0 +14.3 74 +20 +21 1017.7 1016.7 +14.5 +19.6
07 18.06 Ю 5 6000 м дым 10/0
[]
+19.7 +14.9 74 +22 +23 комфорт 1017.3 1016.3
08 18.06 Ю 5-7
{9}
7000 м дым 10/0
[]
+21.1 +15.8 72 +24 +27 комфорт 1017.2 1016.2
09 18.06 Ю 5 6000 м дым 10/0
[]
+22.5 +16.5 69 +27 +30 душно 1016.9 1015.9
10 18.06 Ю 5 8000 м 9/0
[]
+23.2 +17.1 69 +28 +33 душно 1016.8 1015.8
11 18.06 Ю 5 8000 м 9/0
[]
+24.5 +16.7 62 +28 +33 душно 1016.4 1015.4
12 18.06 Ю 4 9000 м 8/0
[]
+25.8 +17.2 59 +30 +36 душно 1016.0 1015.0
13 18.06 ЮВ 5-7
{8}
9000 м ясно +26.4 +15.8 52 +30 +37 душно 1015.4 1014.4
14 18.06 ЮВ 4 10 км 6/0
[]
+27.0 +15.5 49 +30 +35 душно 1014.6 1013.6
15 18.06 В 4 16 км 10/0
[]
+26.2 +17.0 57 +30 +33 душно 1014.0 1013.0
16 18.06 ЮВ 4 22 км 10/0
[]
+26.0 +16.4 55 +29 +31 душно 1013.4 1012.4
17 18.06 В 2 24 км 9/0
[]
+24.3 +16.7 63 +28 +30 душно 1013.4 1012.4
18 18.06 СЗ 8 23 км 10/0 2000 м
[]
+20.1 +15.2 73 +22 +22 комфорт 1013.8 1012.8 +18.7 +27.2
19 18.06 С 4 30 км 10/0
[]
+18.6 +14.5 77 +19 +19 1013.3 1012.3
20 18.06 СЗ 5 26 км 10/0 2000 м
[]
+19.0 +15.1 78 +20 +20 1013.3 1012.3
21 18.06 ЮЗ 4 24 км в посл. час дождь {морось} 10/10 720 м
[]
+19.1 +15.0 77 +20 +20 1014.7 1013.7 0.0
22 18.06 С 4 8000 м слаб. дождь 10/0 2000 м
[]
+18.9 +15.5 81 +20 +20 1013.6 1012.6
23 18.06 СВ 3 18 км в посл. час дождь {морось} 10/0
[]
+18.1 +15.6 85 +18 +18 1012.9 1011.9
00 19.06 В 4 24 км в посл. час дождь {морось} 10/0 2000 м
[]
+17.6 +15.2 86 +17 +17 1012.2 1011.2 3
01 19.06 В 5 27 км 10/0
[]
+17.9 +15.6 86 +17 +17 1011.9 1010.9
02 19.06 ЮВ 3 13 км 10/0
[]
+16.6 +15.0 90 +16 +16 1011.5 1010.5
03 19.06 ЮВ 4-5
{7}
16 км ясно +16.1 +14.4 90 +15 +15 1011.0 1010.0
04 19.06 ЮВ 4-6
{6}
11 км ясно +16.5 +14.5 88 +16 +16 1010.7 1009.7
05 19.06 ЮВ 3 12 км 8/0
[]
+19.0 +15.4 80 +21 +21 комфорт 1010.3 1009.3
06 19.06 ЮВ 3 15 км 10/0
[]
+20.4 +14.9 71 +23 +25 комфорт 1010.2 1009.2 +15.8 +20.9 3
07 19.06 ЮВ 3 23 км 10/0
[]
+20.8 +15.5 72 +24 +27 комфорт 1010.1 1009.1
08 19.06 СВ 2 25 км 10/0
[]
+19.5 +14.8 74 +22 +27 комфорт 1010.3 1009.3
09 19.06 СВ 4 9000 м 10/0
[]
+19.6 +16.1 80 +22 +26 комфорт 1009.9 1008.9
10 19.06 В 4-6
{6}
8000 м 4/0
[]
+20.8 +16.5 76 +24 +33 комфорт 1009.5 1008.5
11 19.06 В 4-6
{6}
8000 м 5/0
[]
+24.2 +18.5 70 +29 +37 душно 1008.8 1007.8
12 19.06 В 4 8000 м 1/0
[]
+26.2 +19.0 65 +31 +42 очень
душно
1008.6 1007.6
13 19.06 ЮВ 5-7
{10}
6000 м дым ясно +28.2 +16.7 50 +32 +39 душно 1008.2 1007.2
14 19.06 ЮВ 5-8
{9}
9000 м 1/0
[]
+28.0 +17.5 53 +32 +38 душно 1007.4 1006.4
15 19.06 В 4 19 км 10/0
[]
+25.4 +15.7 55 +29 +31 душно 1007.0 1006.0
16 19.06 В 4 35 км в посл. час дождь {морось} 10/0
[]
+23.0 +15.2 61 +27 +29 душно 1006.6 1005.6
17 19.06 ЮВ 2 30 км 9/0 2000 м
[]
+23.9 +15.2 58 +27 +28 жарко 1005.9 1004.9
18 19.06 ЮВ 4 30 км {дождь, морось} 9/0 2000 м
[]
+21.5 +15.9 70 +25 +25 комфорт 1005.8 1004.8 +19.3 +28.3 0.0
19 19.06 З 9 1500 м сильн. дождь {ливн. осадки} 10/10 1410 м
[]
+17.3 +15.6 90 +16 +16 1008.1 1007.1
20 19.06 З 3-5
{10}
12 км в посл. час дождь 10/0
[]
+17.1 +16.2 94 +17 +17 1006.7 1005.7
21 19.06 В 2 9000 м {ливн. осадки, дождь} 10/0
[]
+16.4 +15.7 96 +16 +16 1006.7 1005.7 7
22 19.06 Ю 2 13 км 6/0
[]
+16.1 +15.4 96 +16 +16 1007.0 1006.0
23 19.06 ЮЗ 3 13 км 10/0
[]
+16.5 +15.6 94 +16 +16 1007.2 1006.2
00 20.06 ЮЗ 3 13 км {ливн. осадки, дождь} 10/0
[]
+16.4 +15.5 94 +16 +16 1007.1 1006.1
01 20.06 ЮЗ 3 18 км 10/0 2000 м
[]
+17.5 +16.1 91 +17 +17 1006.8 1005.8
02 20.06 Ю 3 9000 м в посл. час дождь 10/0
[]
+16.5 +15.6 94 +16 +16 1006.6 1005.6
03 20.06 ЮЗ 2 12 км {дождь, дымка} 9/0
[]
+16.5 +15.1 91 +17 +17 1006.0 1005.0 0.0
04 20.06 ЮЗ 2 30 км 10/0
[]
+17.2 +15.0 87 +18 +18 1006.6 1005.6
05 20.06 ЮЗ 5 14 км 10/0
[]
+17.9 +15.3 85 +17 +18 1006.9 1005.9
06 20.06 ЮЗ 4 17 км {дождь, дымка} 10/0
[]
+17.9 +15.4 85 +18 +19 1007.1 1006.1 +15.6 +21.9 7
07 20.06 З 7-8
{8}
13 км 10/10 360 м
[]
+18.0 +15.8 87 +17 +17 1007.6 1006.6
08 20.06 З 5 11 км 9/9 360 м
[]
+17.9 +15.4 85 +17 +18 1008.4 1007.4
09 20.06 ЮЗ 5 11 км 10/10 330 м
[]
+18.7 +15.6 82 +19 +19 1008.8 1007.8
10 20.06 ЮЗ 5 7000 м дым 10/10 840 м
[]
+20.1 +15.9 77 +23 +23 комфорт 1008.9 1007.9
11 20.06 ЮЗ 5 16 км 5/5 720 м
[]
+20.5 +15.7 74 +23 +28 комфорт 1009.3 1008.3
12 20.06 ЮЗ 5 7000 м в посл. час дождь {морось} 10/10 600 м
[]
+18.4 +16.3 88 +19 +19 1009.9 1008.9 0.0
13 20.06 З 8 7000 м дымка 9/9 480 м
[]
+18.9 +15.8 82 +19 +20 1010.3 1009.3
15 20.06 З 7 12 км 10/10 1500 м
[]
+18.4 +14.8 80 +18 +18 1010.7 1009.7
16 20.06 З 5-6
{9}
11 км 4/4 1500 м
[]
+19.1 +15.1 78 +20 +22 1010.8 1009.8
17 20.06 З 4-5
{6}
8000 м ясно +19.0 +15.5 80 +20 +22 1010.7 1009.7
18 20.06 З 3 27 км 3/0
[]
+19.0 +14.7 76 +20 +21 1011.2 1010.2 +17.5 +21.2
19 20.06 З 3-4
{5}
17 км ясно +18.4 +14.6 79 +19 +19 1011.6 1010.6
20 20.06 З 3-4
{6}
21 км ясно +17.5 +15.4 87 +17 +17 1012.1 1011.1

 

Местоположение метеостанции Вестермаркельсдорф (Германия): широта 54.53 долгота 11.07 высота над уровнем моря 9 м.

В архиве по умолчанию представлена погода в Вестермаркельсдорфе за последнюю неделю. Архивные данные за месяц целиком и за предыдущие месяцы, начиная с января 2011 года, Вы можете получить, выбрав интересующий диапазон дат из раскрывающегося списка и нажав кнопку "Ввод!".


*Определитесь, кто Вы:
робот инопланетянин человек

Внимание! Время в таблицах - всемирное. Для получения местного времени необходимо прибавить поправку, которая равна 1 ч.

Смотрите также архив погоды в соседних городах и на ближайших метеорологических станциях:

Погода в Мариенлойхте (Германия) (11 км)
Погода в Ланго (Дания) (33 км)
Погода в Абеде (Дания) (37 км)
Погода в Киль маяке (Германия) (51 км)
Погода в Пельцерхакене (Германия) (52 км)
Погода в Гедсер Одде (Дания) (58 км)
Погода в Больтенхагене (Германия) (60 км)
Погода в Дёрнике (Германия) (61 км)
Погода в Киле (Германия) (62 км)
Погода в Тосинге (Дания) (63 км)

Пояснения к столбцам:

Ветер - указаны скорость ветра в м/с - средняя за 10 мин, порывы в срок и между сроками (в фигурных скобках) и направление, откуда дует ветер: С - северный, СВ - северо-восточный, В - восточный, ЮВ - юго-восточный, Ю - южный, ЮЗ - юго-западный, З - западный, СЗ - северо-западный.
Видимость - горизонтальная дальность видимости в метрах или километрах. При видимости от 1 до 10 км при отсутствии осадков обычно наблюдается дымка, при ухудшении видимости до 1 км и менее - туман. В сухую погоду видимость может ухудшаться дымом, пылью или мглою.
Явления - указаны атмосферные явления, наблюдавшиеся в срок или в последний час перед сроком; фигурными скобками обозначены явления, наблюдавшиеся между сроками (за 1-3 часа до срока); квадратными скобками обозначены град или гололедные отложения с указанием их диаметра в мм.
Облачность - указаны через наклонную черту общая и нижняя облачность в баллах и высота нижней границы облаков в метрах; квадратными скобками обозначены формы облаков: Ci - перистые, Cs - перисто-слоистые, Cc - перисто-кучевые, Ac - высококучевые, As - высокослоистые, Sc - слоисто-кучевые, Ns - слоисто-дождевые, Cu - кучевые, Cb - кучево-дождевые. Подробнее классификацию облаков см. в Атласе облаков (PDF).
T - Температура воздуха - температура, измеренная на высоте 2 м над землей.
Td - Температура точки росы - температура, при понижении до которой содержащийся в воздухе водяной пар достигнет насыщения.
f - Относительная влажность воздуха - влажноcть воздуха, измеренная на высоте 2 м над землей.
Te - Эффективная температура - температура, которую ощущает одетый по сезону человек в тени. Характеристика душности погоды. При расчете учитывается влияние влажности воздуха и скорости ветра на теплоощущения человека.
Tes - Эффективная температура на солнце - температура, которую ощущает человек, с поправкой на солнечный нагрев. Характеристика знойности погоды. Зависит от высоты солнца над горизонтом, облачности и скорости ветра. Ночью, в пасмурную погоду, а также при ветре 12 м/с и более поправка равна нулю.
P - Атмосферное давление - приведенное к уровню моря атмосферное давление.
Po - Атмосферное давление - измеренное на уровне метеостанции атмосферное давление.
Tmin - Минимальная температура - минимум температуры воздуха на высоте 2 м над землей.
Tmax - Максимальная температура - максимум температуры воздуха на высоте 2 м над землей.
R - Количество осадков - Количество выпавших осадков за период времени, мм. При наведении курсора мыши на число - период времени, за который выпало указанное количество осадков.
R24 - Количество осадков - Количество выпавших осадков за 24 часа, мм.
S - Снежный покров - Высота снежного покрова, см. При наведении курсора мыши на число - состояние снежного покрова и степень покрытия местности в баллах.